Bookmark and Share
Track history (hours):
 

Citta Di Savona

Last reported at 2014-Apr-24 17:33 UTC. Time now 2014-Apr-25 05:51 UTC.
Position N 44°18' E 008°29'.

Length 31 m; draft 4.2 m.

Type: Tug. MMSI: 247402000.

NotesDate/timePositionNaut miles runAvg speedWind from/ knotsBaromVisibWave heightAir tempDewpointWater temp
2014-Apr-24 17:33N 44°18' E 008°29'0 0.0
2014-Apr-24 16:33N 44°18' E 008°29'0 0.0
2014-Apr-24 15:33N 44°18' E 008°29'0 0.0
2014-Apr-24 14:33N 44°18' E 008°29'0 0.0
2014-Apr-24 13:33N 44°18' E 008°29'0 0.0
2014-Apr-24 12:33N 44°18' E 008°29'0 0.0
2014-Apr-24 11:33N 44°18' E 008°29'0 0.0
2014-Apr-24 10:33N 44°18' E 008°29'0 0.0
2014-Apr-24 09:33N 44°18' E 008°29'0 0.0
2014-Apr-24 08:33N 44°18' E 008°29'0 0.0
2014-Apr-24 07:33N 44°18' E 008°29'0 0.0
2014-Apr-24 06:33N 44°18' E 008°29'0 0.0
2014-Apr-24 05:33N 44°18' E 008°29'0 0.0
2014-Apr-24 04:33N 44°18' E 008°29'0 0.0
2014-Apr-24 03:33N 44°18' E 008°29'0 0.0
2014-Apr-23 21:33N 44°18' E 008°29'0 0.0
2014-Apr-23 20:33N 44°18' E 008°29'0 0.0
2014-Apr-23 19:34N 44°18' E 008°29'0 0.0
2014-Apr-23 18:33N 44°18' E 008°29'0 0.0
2014-Apr-23 17:34N 44°18' E 008°29'0 0.0
2014-Apr-23 16:33N 44°18' E 008°29'1 0.7
2014-Apr-23 15:33N 44°18' E 008°29'2 1.7
2014-Apr-23 14:33N 44°16' E 008°28'2 2.3
2014-Apr-23 13:33N 44°18' E 008°29'0 0.0
2014-Apr-23 12:33N 44°18' E 008°29'0 0.0
2014-Apr-23 11:33N 44°18' E 008°29'0 0.0
2014-Apr-22 17:33N 44°18' E 008°29'0 0.3
2014-Apr-22 16:33N 44°19' E 008°30'0 0.3
2014-Apr-22 15:33N 44°18' E 008°29'0 0.0
2014-Apr-22 14:33N 44°18' E 008°29'0 0.0
2014-Apr-22 13:33N 44°19' E 008°29'1 0.9
2014-Apr-22 12:33N 44°19' E 008°31'1 0.9
2014-Apr-22 11:34N 44°18' E 008°29'0 0.0
2014-Apr-22 10:33N 44°18' E 008°29'1 0.9
2014-Apr-22 09:33N 44°18' E 008°29'1 1.4
2014-Apr-22 08:33N 44°17' E 008°28'0 0.3
2014-Apr-22 07:33N 44°17' E 008°27'0 0.5
2014-Apr-22 06:33N 44°16' E 008°27'0 0.4
2014-Apr-22 05:33N 44°16' E 008°27'3 3.0
2014-Apr-22 04:33N 44°19' E 008°29'0 0.0
2014-Apr-22 03:33N 44°18' E 008°29'0 0.0
2014-Apr-22 02:33N 44°18' E 008°29'0 0.0
2014-Apr-22 01:33N 44°18' E 008°29'0 0.0
2014-Apr-22 00:33N 44°18' E 008°29'0 0.0
2014-Apr-21 15:21N 44°18' E 008°29'1 1.3
2014-Apr-21 14:33N 44°17' E 008°29'1 1.4
2014-Apr-21 13:33N 44°16' E 008°28'0 0.5
2014-Apr-21 12:33N 44°16' E 008°28'2 2.3
2014-Apr-21 11:33N 44°18' E 008°29'0 0.0
2014-Apr-21 10:33N 44°18' E 008°29'0 0.0
2014-Apr-21 09:33N 44°18' E 008°29'0 0.0
2014-Apr-21 08:33N 44°18' E 008°29'0 0.0
2014-Apr-21 07:33N 44°18' E 008°29'0 0.0
2014-Apr-21 06:33N 44°18' E 008°29'0 0.0
2014-Apr-21 05:33N 44°18' E 008°29'0 0.0
2014-Apr-21 04:33N 44°18' E 008°29'0 0.0
2014-Apr-20 11:25N 44°18' E 008°29'2 2.1
2014-Apr-20 10:33N 44°17' E 008°28'1 0.6
2014-Apr-20 09:33N 44°17' E 008°27'0 0.4
2014-Apr-20 08:33N 44°16' E 008°28'2 2.2
2014-Apr-20 07:32N 44°18' E 008°29'0 0.0
2014-Apr-20 06:29N 44°18' E 008°29'0 0.0
2014-Apr-20 05:29N 44°18' E 008°29'0 0.0
2014-Apr-20 04:29N 44°18' E 008°29'0 0.0
2014-Apr-19 08:27N 44°18' E 008°29'0 0.0
2014-Apr-19 07:33N 44°18' E 008°29'0 0.0
2014-Apr-19 06:33N 44°18' E 008°29'0 0.0
2014-Apr-19 05:33N 44°18' E 008°29'0 0.0
2014-Apr-19 04:33N 44°18' E 008°29'0 0.0
2014-Apr-19 03:33N 44°18' E 008°29'0 0.0
2014-Apr-19 02:33N 44°18' E 008°29'0 0.0
2014-Apr-19 01:33N 44°18' E 008°29'0 0.0
2014-Apr-19 00:27N 44°18' E 008°29'0 0.0
2014-Apr-18 23:33N 44°18' E 008°29'0 0.0
2014-Apr-18 22:33N 44°18' E 008°29'0 0.0
2014-Apr-18 08:26N 44°18' E 008°29'0 0.0
2014-Apr-18 07:32N 44°18' E 008°29'2 2.1
2014-Apr-18 06:31N 44°17' E 008°27'0 0.4
2014-Apr-18 05:31N 44°16' E 008°28'3 3.4
2014-Apr-18 04:33N 44°19' E 008°30'1 0.5
2014-Apr-18 03:08N 44°18' E 008°29'0 0.0
2014-Apr-18 02:32N 44°18' E 008°29'0 0.0
2014-Apr-18 01:32N 44°18' E 008°29'0 0.0
2014-Apr-18 00:32N 44°18' E 008°29'0 0.0
2014-Apr-17 23:32N 44°18' E 008°29'1 0.0
2014-Apr-16 22:17N 44°19' E 008°30'1 0.1
2014-Apr-16 15:20N 44°18' E 008°29'0 0.0
2014-Apr-16 07:24N 44°18' E 008°29'0 0.1
2014-Apr-16 05:18N 44°19' E 008°30'1 0.6
2014-Apr-16 04:24N 44°19' E 008°30'1 0.1
2014-Apr-15 19:17N 44°18' E 008°29'1 0.7
2014-Apr-15 18:17N 44°18' E 008°30'1 0.2
2014-Apr-15 15:20N 44°18' E 008°29'  

Dump ship's entire track history

sailing weather and tide predictions

Citta Di Savona — IMDS — position and weather